[[{"header":{"parameterUnit":"m.s-1","parameterCategory":2,"la1":30.2991,"la2":30.254,"lo1":-89.0895,"lo2":-89.0444,"dy":0.0017,"dx":0.0017,"nx":28,"ny":28,"refTime":"2024-07-28T21:00:00:Z","depth":"0","parameterNumber":2,"parameterNumberName":"U-component_of_CURRENTS"},"data":[0,0,0,0,0,0,0,0,0,0,0,0,0,0,0,0,0,0,0,0,0,0,0,0,0,0,0,0,0,0,0,0,0,0,0,0,0,0,0,0,0,0,0,0,0,0,0,0,0,0,0,0,0,0,0,0,0,0,0.2671,0.2671,0,0.264,0.2639,0.2639,0.2614,0.2614,0.2614,0.2614,0.2555,0.2553,0.2552,0,0,0,0,0,0,0,0,0,0,0,0,0,0.2663,0.2663,0.2671,0.2671,0.2671,0.264,0.2639,0.2639,0.2614,0.2614,0.2614,0.2614,0.2555,0.2553,0.2551,0,0,0,0,0,0,0,0,0,0,0,0,0,0.2651,0.2664,0.2671,0.2656,0.2655,0.264,0.2639,0.2638,0.2614,0.2614,0.2614,0.2614,0.2556,0.2553,0.2551,0.2539,0,0,0.2544,0.2543,0,0,0,0,0,0,0,0,0.2652,0.2651,0.2659,0.2657,0.2655,0.2633,0.2615,0.2604,0.2614,0.2627,0.2614,0.2614,0.258,0.2575,0.2567,0.2536,0.2533,0.2544,0.2543,0.2542,0.2541,0,0,0,0,0,0,0,0.2652,0.2652,0.2656,0.2658,0.2657,0.2635,0.2634,0.2613,0.2602,0.2626,0.2624,0.2625,0.2578,0.2569,0.2565,0.2532,0.2544,0.2542,0.2541,0.254,0.2544,0.2545,0,0,0,0,0,0,0.2663,0.2653,0.2657,0.2656,0.2656,0.2636,0.2634,0.2638,0.2603,0.2598,0.2625,0.2624,0.2573,0.2568,0.2563,0.2615,0.2542,0.2539,0.2538,0.2542,0.2544,0.2546,0,0,0,0,0,0,0.2663,0.2664,0.2659,0.2655,0.2653,0.2637,0.2641,0.2638,0.2636,0.2602,0.2597,0.2628,0.2573,0.2566,0.2561,0.2609,0.2538,0.2536,0.2541,0.2543,0.2545,0.2674,0,0,0,0,0,0,0.2663,0.2664,0.2667,0.2656,0.2654,0.2664,0.2641,0.2637,0.2637,0.2635,0.2604,0.2598,0.2572,0.2565,0.2559,0.2605,0.2535,0.2539,0.2542,0.2544,0.2667,0.268,0.2691,0,0,0,0,0,0.2663,0.2668,0.2668,0.2668,0.266,0.2665,0.2662,0.2648,0.2638,0.2645,0.2626,0.2599,0.2579,0.2564,0.2557,0.2603,0.2537,0.2541,0.2544,0.2662,0.2677,0.269,0,0,0,0,0,0,0.2655,0.2666,0.2665,0.267,0.2676,0.2662,0.2658,0.2656,0.2646,0.2639,0.2609,0.2603,0.2619,0.2587,0.2572,0.2612,0.2557,0.2559,0.2649,0.2663,0.2675,0.2649,0.2533,0,0,0,0,0,0.2659,0.2674,0.2676,0.2682,0.2682,0.2673,0.2671,0.2668,0.2659,0.2654,0.264,0.2624,0.2625,0.2625,0.2609,0.2625,0.2627,0.2651,0.2663,0.2673,0.2647,0.2717,0.2733,0.2557,0.2557,0.2557,0,0,0.265,0.2666,0.2667,0.2683,0.2677,0.2684,0.2671,0.2675,0.2688,0.2649,0.2658,0.2657,0.2636,0.2662,0.2667,0.2643,0.2733,0.2677,0.2687,0.2654,0.2722,0.2739,0.2755,0.2559,0.2559,0.2558,0,0,0.2647,0.2661,0.2666,0.2678,0.2689,0.2693,0.2701,0.2701,0.2708,0.2721,0.2709,0.2733,0.2719,0.2731,0.273,0.279,0.2789,0.2798,0.2842,0.2913,0.2928,0.2941,0.301,0.3028,0.281,0.281,0.2811,0,0.2628,0.2649,0.2667,0.2679,0.2689,0.2702,0.2708,0.2721,0.2727,0.2742,0.2735,0.2759,0.275,0.2796,0.2824,0.2818,0.2856,0.2799,0.2931,0.2943,0.2955,0.3021,0.304,0.2817,0.2816,0.2816,0.2815,0,0.2631,0.2647,0.2651,0.2679,0.2697,0.2707,0.2733,0.2756,0.2773,0.2791,0.2838,0.2844,0.286,0.2884,0.2869,0.2955,0.2959,0.294,0.2901,0.2981,0.3046,0.3063,0.2826,0.2824,0.2822,0.282,0,0,0.2574,0.2637,0.2636,0.2654,0.2699,0.271,0.2752,0.2791,0.2819,0.2855,0.29,0.2935,0.2955,0.2954,0.297,0.3027,0.3166,0.3024,0.3025,0.3101,0.334,0.3378,0.3399,0.319,0.3193,0.3195,0.3369,0,0.2559,0.259,0.2632,0.2658,0.2671,0.2717,0.2757,0.2803,0.2846,0.2897,0.2943,0.2982,0.2982,0.3009,0.3077,0.3124,0.3209,0.312,0.3239,0.3241,0.3274,0.3419,0.3374,0.3528,0.3385,0.3388,0.339,0,0.2537,0.2569,0.2592,0.266,0.2667,0.2689,0.276,0.2799,0.2884,0.292,0.2988,0.3025,0.3114,0.3102,0.3254,0.3205,0.3281,0.3324,0.3332,0.3319,0.331,0.3415,0.3563,0.3436,0.3415,0.3413,0.3412,0,0.2486,0.2539,0.2563,0.2581,0.2655,0.2676,0.2717,0.2797,0.2835,0.2937,0.2977,0.3089,0.3147,0.3252,0.3356,0.3322,0.3524,0.3489,0.3601,0.3604,0.3557,0.3552,0.3594,0.3616,0.3615,0.3615,0.3614,0,0.2457,0.2469,0.2537,0.2544,0.2572,0.2641,0.2679,0.2737,0.2827,0.2881,0.2982,0.3047,0.3189,0.3319,0.3402,0.3571,0.358,0.3632,0.3664,0.3605,0.3602,0.3476,0.3374,0.3622,0.362,0.3619,0.3618,0,0.239,0.2437,0.2458,0.2525,0.2544,0.2559,0.2634,0.2668,0.2763,0.284,0.2876,0.3043,0.3223,0.3376,0.3564,0.3637,0.3688,0.3835,0.376,0.3779,0.374,0.3647,0.3561,0.3469,0.3986,0.3988,0.399,0,0.2355,0.2362,0.2417,0.2423,0.2446,0.2483,0.2511,0.2614,0.266,0.2829,0.2865,0.3072,0.3211,0.3521,0.3711,0.3922,0.3764,0.399,0.3907,0.376,0.368,0.3475,0.3387,0.3913,0.3914,0.3915,0.3915,0,0.2275,0.2295,0.231,0.2338,0.2356,0.2392,0.2445,0.2469,0.2606,0.2697,0.2849,0.2976,0.331,0.3524,0.3821,0.3943,0.379,0.4015,0.3884,0.365,0.3406,0.3326,0.3766,0.3923,0.3922,0.3922,0.3921,0.3921,0.2192,0.2189,0.2216,0.2234,0.2263,0.2294,0.2297,0.2387,0.2468,0.2602,0.2773,0.2955,0.3297,0.3715,0.3829,0.398,0.385,0.392,0.3834,0.3651,0.3502,0.3965,0.4137,0.4138,0.4138,0.4138,0.4139,0,0.208,0.2101,0.2116,0.2131,0.2133,0.2194,0.2248,0.2259,0.2333,0.2512,0.2665,0.2997,0.3275,0.3557,0.3853,0.3796,0.3648,0.37,0.3379,0.3315,0.378,0.3717,0.3778,0.3778,0.3779,0.3779,0.3779,0.3779,0.2019,0.2,0.2023,0.1996,0.2016,0.2009,0.2027,0.2085,0.2195,0.2365,0.2542,0.2729,0.3073,0.3406,0.3522,0.3521,0.3226,0.314,0.304,0.3348,0.3358,0.3369,0.3287,0.3257,0.3257,0.2502,0.2496,0.2491]},{"header":{"parameterUnit":"m.s-1","parameterCategory":2,"la1":30.2991,"la2":30.254,"lo1":-89.0895,"lo2":-89.0444,"dy":0.0017,"dx":0.0017,"nx":28,"ny":28,"refTime":"2024-07-28T21:00:00:Z","depth":"0","parameterNumber":3,"parameterNumberName":"V-component_of_CURRENTS"},"data":[0,0,0,0,0,0,0,0,0,0,0,0,0,0,0,0,0,0,0,0,0,0,0,0,0,0,0,0,0,0,0,0,0,0,0,0,0,0,0,0,0,0,0,0,0,0,0,0,0,0,0,0,0,0,0,0,0,0,-0.1157,-0.1157,0,-0.1198,-0.1198,-0.1199,-0.124,-0.124,-0.1241,-0.1241,-0.1315,-0.1317,-0.1318,0,0,0,0,0,0,0,0,0,0,0,0,0,-0.1121,-0.1122,-0.1157,-0.1157,-0.1158,-0.1198,-0.1198,-0.1199,-0.124,-0.124,-0.1241,-0.1242,-0.1315,-0.1316,-0.1318,0,0,0,0,0,0,0,0,0,0,0,0,0,-0.1147,-0.1122,-0.1157,-0.1183,-0.1185,-0.1198,-0.1198,-0.1199,-0.124,-0.124,-0.1241,-0.1242,-0.1314,-0.1316,-0.1318,-0.1317,0,0,-0.1325,-0.1326,0,0,0,0,0,0,0,0,-0.1146,-0.1148,-0.1178,-0.1181,-0.1184,-0.1214,-0.1213,-0.124,-0.1239,-0.1219,-0.1241,-0.1242,-0.1284,-0.1288,-0.1294,-0.132,-0.1323,-0.1325,-0.1327,-0.1328,-0.1328,0,0,0,0,0,0,0,-0.1144,-0.1147,-0.1173,-0.1179,-0.1182,-0.1195,-0.1199,-0.1218,-0.1248,-0.1221,-0.1224,-0.1228,-0.1286,-0.1292,-0.1297,-0.1324,-0.1325,-0.1327,-0.1329,-0.133,-0.1339,-0.1337,0,0,0,0,0,0,-0.1137,-0.1145,-0.1172,-0.1175,-0.1166,-0.1195,-0.12,-0.1204,-0.1247,-0.1254,-0.1227,-0.123,-0.1288,-0.1294,-0.1299,-0.1272,-0.1328,-0.133,-0.1331,-0.134,-0.1338,-0.1337,0,0,0,0,0,0,-0.1136,-0.1139,-0.117,-0.1161,-0.1165,-0.1194,-0.1199,-0.1204,-0.1213,-0.1251,-0.1259,-0.123,-0.1289,-0.1296,-0.13,-0.1276,-0.1331,-0.1333,-0.1341,-0.1339,-0.1338,-0.1235,0,0,0,0,0,0,-0.1135,-0.1138,-0.1129,-0.116,-0.1166,-0.1166,-0.1198,-0.1205,-0.1214,-0.1218,-0.1256,-0.1264,-0.129,-0.1296,-0.1302,-0.128,-0.1335,-0.1342,-0.134,-0.1338,-0.124,-0.123,-0.1222,0,0,0,0,0,-0.1133,-0.1115,-0.1129,-0.1132,-0.1156,-0.1165,-0.1168,-0.1192,-0.1213,-0.1205,-0.1228,-0.1263,-0.1288,-0.1297,-0.1304,-0.1282,-0.1343,-0.1341,-0.1338,-0.1244,-0.1232,-0.1222,0,0,0,0,0,0,-0.1087,-0.1118,-0.1134,-0.1124,-0.114,-0.1171,-0.116,-0.1187,-0.12,-0.1203,-0.1246,-0.1254,-0.125,-0.128,-0.1289,-0.128,-0.1323,-0.1321,-0.1248,-0.1238,-0.1229,-0.1191,-0.1336,0,0,0,0,0,-0.1075,-0.1075,-0.1104,-0.1095,-0.1097,-0.113,-0.1135,-0.1156,-0.1176,-0.1183,-0.121,-0.1235,-0.1245,-0.1252,-0.1269,-0.1262,-0.1273,-0.1255,-0.1245,-0.1238,-0.1212,-0.1215,-0.1203,-0.1329,-0.1329,-0.1329,0,0,-0.1052,-0.1071,-0.1069,-0.1086,-0.1097,-0.1085,-0.1134,-0.1136,-0.1127,-0.1188,-0.1177,-0.1206,-0.1236,-0.1225,-0.1226,-0.1246,-0.1205,-0.1234,-0.1227,-0.1205,-0.1211,-0.1198,-0.1187,-0.1327,-0.1328,-0.1328,0,0,-0.1006,-0.1024,-0.1005,-0.1013,-0.103,-0.1048,-0.1047,-0.1076,-0.1086,-0.1085,-0.1121,-0.1125,-0.1155,-0.1158,-0.1167,-0.1119,-0.1159,-0.1138,-0.1058,-0.1061,-0.1051,-0.1041,-0.1024,-0.1014,-0.1131,-0.1131,-0.1131,0,-0.097,-0.0961,-0.0998,-0.0981,-0.0975,-0.1027,-0.0997,-0.1011,-0.104,-0.1036,-0.1068,-0.108,-0.1115,-0.1081,-0.1065,-0.1095,-0.1101,-0.1096,-0.1048,-0.1039,-0.1031,-0.1016,-0.1006,-0.1126,-0.1126,-0.1127,-0.1127,0,-0.0917,-0.0903,-0.0888,-0.0885,-0.0884,-0.0867,-0.0892,-0.0893,-0.0919,-0.0938,-0.0923,-0.0957,-0.0966,-0.0977,-0.1007,-0.0964,-0.0986,-0.1037,-0.107,-0.1012,-0.1,-0.0992,-0.1118,-0.112,-0.1122,-0.1123,0,0,-0.0839,-0.0847,-0.0837,-0.0818,-0.0831,-0.082,-0.0801,-0.0792,-0.0772,-0.08,-0.0763,-0.0782,-0.0815,-0.0824,-0.0862,-0.0855,-0.081,-0.0914,-0.0917,-0.0887,-0.0798,-0.0787,-0.0778,-0.0859,-0.0857,-0.0856,-0.0807,0,-0.0774,-0.0724,-0.075,-0.069,-0.0658,-0.0693,-0.0669,-0.0674,-0.069,-0.0671,-0.0697,-0.0688,-0.0754,-0.0753,-0.0755,-0.0802,-0.0786,-0.0817,-0.0867,-0.0868,-0.0858,-0.0767,-0.0722,-0.0672,-0.0799,-0.0797,-0.0797,0,-0.0703,-0.068,-0.0612,-0.0588,-0.0576,-0.0551,-0.0518,-0.0508,-0.0508,-0.052,-0.0518,-0.0559,-0.0544,-0.0618,-0.0639,-0.0659,-0.071,-0.0743,-0.0744,-0.0759,-0.0841,-0.0756,-0.0653,-0.0796,-0.0784,-0.0785,-0.0786,0,-0.0617,-0.0578,-0.052,-0.0509,-0.0492,-0.0462,-0.0455,-0.0453,-0.0434,-0.0421,-0.0403,-0.0419,-0.0416,-0.0473,-0.0561,-0.0602,-0.0579,-0.0659,-0.0682,-0.0682,-0.0663,-0.0664,-0.0693,-0.0655,-0.0655,-0.0655,-0.0655,0,-0.0532,-0.048,-0.0473,-0.0434,-0.0365,-0.0383,-0.0317,-0.032,-0.0303,-0.0257,-0.0319,-0.0272,-0.0382,-0.0401,-0.0495,-0.0542,-0.0536,-0.0626,-0.0656,-0.0626,-0.0624,-0.0767,-0.0871,-0.0653,-0.0654,-0.0654,-0.0654,0,-0.0441,-0.0437,-0.0367,-0.0335,-0.0321,-0.027,-0.0241,-0.0199,-0.0198,-0.0133,-0.0123,-0.0149,-0.0167,-0.0267,-0.0344,-0.0445,-0.0561,-0.0528,-0.047,-0.0493,-0.0664,-0.0764,-0.0777,-0.0831,-0.0536,-0.0536,-0.0535,0,-0.0386,-0.0342,-0.0291,-0.0255,-0.0235,-0.0178,-0.0141,-0.0139,-0.0098,-0.0048,0.0,0.0001,0.0022,-0.0075,-0.0224,-0.0342,-0.0501,-0.0414,-0.0488,-0.0624,-0.0759,-0.0812,-0.0861,-0.0419,-0.0418,-0.0416,-0.0415,0,-0.0285,-0.0273,-0.0231,-0.0158,-0.0106,-0.0047,0.0006,0.0053,0.0072,0.0137,0.0225,0.0252,0.0167,0.0094,-0.0086,-0.0207,-0.0498,-0.0393,-0.055,-0.0659,-0.07,-0.0783,-0.0502,-0.0404,-0.0405,-0.0406,-0.0407,-0.0407,-0.0217,-0.0176,-0.013,-0.006,0.0001,0.0087,0.0157,0.0219,0.0316,0.0448,0.0438,0.0561,0.0375,0.0154,-0.0052,-0.0381,-0.0416,-0.0501,-0.0604,-0.0638,-0.0705,-0.0382,-0.0322,-0.0323,-0.0323,-0.0324,-0.0324,0,-0.0133,-0.0104,-0.0036,0.0055,0.0143,0.0152,0.0259,0.0349,0.0495,0.0645,0.0757,0.0812,0.0557,0.0246,-0.019,-0.0511,-0.0646,-0.071,-0.0792,-0.0831,-0.0546,-0.056,-0.0528,-0.0528,-0.0528,-0.0528,-0.0528,-0.0528,-0.0089,-0.0021,0.0007,0.0165,0.0231,0.037,0.0441,0.0581,0.0718,0.0975,0.1137,0.1216,0.1007,0.0087,-0.0579,-0.0773,-0.1008,-0.1044,-0.1188,-0.1037,-0.1026,-0.1016,-0.1053,-0.1125,-0.1126,-0.14,-0.1404,-0.1406]}],[{"header":{"parameterUnit":"m.s-1","parameterCategory":2,"la1":30.2991,"la2":30.254,"lo1":-89.0895,"lo2":-89.0444,"dy":0.0017,"dx":0.0017,"nx":28,"ny":28,"refTime":"2024-07-28T21:00:00:Z","depth":"2","parameterNumber":2,"parameterNumberName":"U-component_of_CURRENTS"},"data":[0,0,0,0,0,0,0,0,0,0,0,0,0,0,0,0,0,0,0,0,0,0,0,0,0,0,0,0,0,0,0,0,0,0,0,0,0,0,0,0,0,0,0,0,0,0,0,0,0,0,0,0,0,0,0,0,0,0,0.0533,0.0534,0,0.0625,0.0626,0.0627,0.0648,0.0648,0.0647,0.0647,0.0687,0.0689,0.069,0,0,0,0,0,0,0,0,0,0,0,0,0,0.0412,0.0414,0.0533,0.0535,0.0536,0.0625,0.0626,0.0628,0.0648,0.0648,0.0647,0.0646,0.0686,0.0688,0.069,0,0,0,0,0,0,0,0,0,0,0,0,0,0.048,0.0414,0.0533,0.0557,0.0561,0.0625,0.0627,0.0628,0.0649,0.0648,0.0647,0.0646,0.0686,0.0688,0.0691,0.0723,0,0,0.0698,0.0699,0,0,0,0,0,0,0,0,0.0476,0.0484,0.0553,0.0556,0.0559,0.0625,0.0599,0.0657,0.0649,0.0614,0.0647,0.0646,0.0663,0.0667,0.0686,0.0725,0.0727,0.0698,0.07,0.0701,0.0701,0,0,0,0,0,0,0,0.0471,0.048,0.0569,0.0554,0.0558,0.0576,0.0584,0.061,0.0641,0.0617,0.0619,0.0631,0.0664,0.0684,0.0687,0.0727,0.0698,0.07,0.0702,0.0703,0.0836,0.0838,0,0,0,0,0,0,0.046,0.0476,0.0566,0.0572,0.0515,0.0579,0.0588,0.0604,0.0642,0.0647,0.0632,0.0632,0.068,0.0684,0.0688,0.0782,0.0701,0.0703,0.0704,0.0833,0.0836,0.0838,0,0,0,0,0,0,0.0458,0.0468,0.0562,0.0526,0.0539,0.0582,0.06,0.0607,0.064,0.0653,0.0657,0.0659,0.0679,0.0685,0.0739,0.0781,0.0704,0.0706,0.0831,0.0834,0.0837,0.0935,0,0,0,0,0,0,0.0454,0.0466,0.0484,0.0526,0.0541,0.0615,0.0601,0.0609,0.0648,0.0649,0.0678,0.068,0.0679,0.0735,0.0741,0.0783,0.0708,0.0828,0.0832,0.0836,0.0929,0.0941,0.0951,0,0,0,0,0,0.0449,0.0482,0.0484,0.0496,0.0561,0.0617,0.0628,0.0653,0.065,0.0677,0.0702,0.068,0.0763,0.074,0.0746,0.0789,0.0827,0.0831,0.0836,0.0924,0.0938,0.0951,0,0,0,0,0,0,0.0454,0.0489,0.0492,0.0538,0.0577,0.0621,0.0655,0.0666,0.0709,0.0712,0.0715,0.0721,0.078,0.0774,0.0747,0.0838,0.0788,0.0794,0.0853,0.0867,0.0877,0.091,0.071,0,0,0,0,0,0.0459,0.0488,0.0524,0.0566,0.0584,0.062,0.0649,0.0666,0.0705,0.0723,0.0747,0.0772,0.0804,0.0826,0.0849,0.0907,0.0935,0.0936,0.0947,0.0956,0.0987,0.1068,0.109,0.0854,0.0854,0.0853,0,0,0.0478,0.0499,0.052,0.0568,0.06,0.0652,0.0636,0.0689,0.0741,0.0721,0.0803,0.0812,0.0827,0.0891,0.0916,0.0894,0.104,0.0962,0.097,0.0996,0.1075,0.1098,0.1119,0.0857,0.0856,0.0856,0,0,0.0525,0.0544,0.0579,0.0614,0.0661,0.0689,0.0707,0.076,0.079,0.0865,0.0861,0.0907,0.0957,0.0985,0.1001,0.1089,0.1092,0.1084,0.1176,0.1254,0.1274,0.1293,0.1368,0.1392,0.1094,0.1094,0.1094,0,0.0548,0.0592,0.0603,0.0647,0.0688,0.0709,0.0767,0.081,0.0878,0.092,0.0902,0.1007,0.1009,0.1098,0.1129,0.1117,0.1162,0.1122,0.127,0.1289,0.1306,0.1378,0.1404,0.11,0.1099,0.1098,0.1098,0,0.0613,0.0657,0.0687,0.0745,0.0791,0.0849,0.0898,0.0957,0.0991,0.1033,0.1127,0.1145,0.121,0.121,0.1202,0.1322,0.1316,0.1271,0.1239,0.1337,0.1406,0.1431,0.1107,0.1105,0.1104,0.1102,0,0,0.0652,0.0718,0.0731,0.0769,0.0846,0.0892,0.0988,0.1081,0.1151,0.1214,0.1311,0.137,0.1379,0.1399,0.1389,0.1456,0.1608,0.1429,0.1431,0.151,0.18,0.169,0.1706,0.1596,0.16,0.1604,0.1803,0,0.0706,0.0787,0.0815,0.092,0.0971,0.1024,0.111,0.1196,0.1263,0.1361,0.1403,0.1477,0.1449,0.1477,0.1552,0.1587,0.1678,0.156,0.169,0.1695,0.1589,0.1732,0.1554,0.1707,0.1827,0.1831,0.1834,0,0.0764,0.0809,0.0908,0.0999,0.1027,0.1102,0.1239,0.1316,0.1446,0.1497,0.1593,0.1612,0.1732,0.1669,0.1843,0.1773,0.1818,0.1839,0.1846,0.1731,0.1631,0.1627,0.1748,0.1876,0.1872,0.1869,0.1867,0,0.0796,0.0878,0.0957,0.0993,0.1103,0.1174,0.1243,0.1371,0.1435,0.1589,0.1645,0.178,0.1843,0.1938,0.1993,0.1938,0.217,0.2085,0.204,0.2032,0.19,0.1871,0.2234,0.2234,0.2233,0.2233,0.2232,0,0.0846,0.0914,0.0974,0.1042,0.1123,0.1197,0.1315,0.1408,0.1527,0.1619,0.1712,0.18,0.1916,0.2034,0.2078,0.2157,0.2252,0.2107,0.2094,0.1926,0.1898,0.2043,0.2018,0.224,0.2239,0.2237,0.2236,0,0.0876,0.0924,0.1022,0.113,0.1155,0.122,0.1325,0.1398,0.1522,0.1647,0.1694,0.1859,0.2033,0.2135,0.2299,0.2248,0.2329,0.2329,0.2123,0.2079,0.212,0.2098,0.2309,0.2307,0.2306,0.2304,0.2303,0,0.0892,0.0942,0.1072,0.1094,0.1146,0.1224,0.1277,0.1397,0.1466,0.1673,0.173,0.1931,0.2041,0.2241,0.2233,0.2316,0.2388,0.2169,0.201,0.2172,0.2138,0.2118,0.2098,0.1893,0.1888,0.1885,0.1882,0,0.0912,0.0976,0.1037,0.1097,0.1149,0.1201,0.1289,0.133,0.1485,0.1586,0.1755,0.1854,0.2026,0.2026,0.2103,0.211,0.2131,0.2092,0.2383,0.1864,0.1785,0.1748,0.1742,0.185,0.1853,0.1855,0.1857,0.1858,0.0902,0.0924,0.1013,0.1064,0.1108,0.1178,0.1223,0.1305,0.1403,0.1539,0.1666,0.1761,0.177,0.178,0.1806,0.1847,0.1934,0.1856,0.1866,0.188,0.1759,0.1677,0.1702,0.1704,0.1706,0.1708,0.1709,0,0.0873,0.0926,0.0962,0.1026,0.1062,0.1147,0.1223,0.1237,0.1336,0.1433,0.154,0.1396,0.1411,0.153,0.1493,0.1463,0.1443,0.1475,0.144,0.147,0.1498,0.1357,0.1195,0.1194,0.1193,0.1192,0,0,0.0839,0.0887,0.0924,0.0979,0.1037,0.1104,0.1162,0.1183,0.1221,0.1206,0.124,0.1284,0.1373,0.1197,0.1204,0.1225,0.1341,0.1196,0.1599,0.1582,0.1608,0.17,0.1514,0,0,0,0,0]},{"header":{"parameterUnit":"m.s-1","parameterCategory":2,"la1":30.2991,"la2":30.254,"lo1":-89.0895,"lo2":-89.0444,"dy":0.0017,"dx":0.0017,"nx":28,"ny":28,"refTime":"2024-07-28T21:00:00:Z","depth":"2","parameterNumber":3,"parameterNumberName":"V-component_of_CURRENTS"},"data":[0,0,0,0,0,0,0,0,0,0,0,0,0,0,0,0,0,0,0,0,0,0,0,0,0,0,0,0,0,0,0,0,0,0,0,0,0,0,0,0,0,0,0,0,0,0,0,0,0,0,0,0,0,0,0,0,0,0,0.041,0.041,0,0.0374,0.0373,0.0373,0.034,0.034,0.0339,0.0339,0.0255,0.0254,0.0252,0,0,0,0,0,0,0,0,0,0,0,0,0,0.0447,0.0446,0.041,0.041,0.0409,0.0374,0.0373,0.0373,0.0341,0.034,0.0339,0.0339,0.0256,0.0254,0.0252,0,0,0,0,0,0,0,0,0,0,0,0,0,0.0424,0.0446,0.041,0.0387,0.0384,0.0374,0.0373,0.0373,0.0341,0.034,0.0339,0.0338,0.0257,0.0254,0.0252,0.0253,0,0,0.0244,0.0243,0,0,0,0,0,0,0,0,0.0426,0.0423,0.0391,0.0389,0.0386,0.0359,0.0355,0.033,0.0341,0.0359,0.0339,0.0338,0.0285,0.028,0.0279,0.0249,0.0245,0.0244,0.0242,0.0241,0.024,0,0,0,0,0,0,0,0.0427,0.0425,0.0398,0.039,0.0387,0.0376,0.0373,0.0351,0.0328,0.0358,0.0355,0.0348,0.0283,0.0281,0.0276,0.0244,0.0244,0.0241,0.024,0.0239,0.0133,0.0132,0,0,0,0,0,0,0.0429,0.0426,0.0399,0.0396,0.0402,0.0376,0.0372,0.037,0.0329,0.0322,0.0349,0.0347,0.0286,0.0279,0.0273,0.0222,0.0241,0.0239,0.0237,0.0135,0.0133,0.0132,0,0,0,0,0,0,0.043,0.0427,0.04,0.0409,0.0404,0.0377,0.0374,0.037,0.0349,0.0322,0.0315,0.033,0.0285,0.0277,0.0235,0.022,0.0238,0.0235,0.0136,0.0134,0.0132,0.0151,0,0,0,0,0,0,0.0432,0.0428,0.0424,0.0409,0.0404,0.0393,0.0375,0.037,0.0346,0.0342,0.0304,0.0297,0.0284,0.0239,0.0233,0.0217,0.0233,0.0138,0.0135,0.0133,0.0152,0.015,0.0149,0,0,0,0,0,0.0433,0.0439,0.0424,0.042,0.04,0.0394,0.039,0.0369,0.0346,0.0345,0.0306,0.0297,0.0219,0.0236,0.0229,0.0212,0.0139,0.0136,0.0133,0.0153,0.0151,0.0149,0,0,0,0,0,0,0.0455,0.0435,0.0419,0.0418,0.0403,0.0387,0.0381,0.036,0.0331,0.0315,0.0287,0.0277,0.0233,0.0216,0.0236,0.0171,0.0175,0.017,0.0193,0.019,0.0188,0.0229,0.0231,0,0,0,0,0,0.0457,0.0452,0.0432,0.0429,0.0421,0.0395,0.0385,0.0367,0.034,0.0326,0.0294,0.0254,0.0219,0.02,0.0169,0.014,0.0129,0.012,0.0118,0.0117,0.0143,0.0093,0.009,0.0122,0.0122,0.0122,0,0,0.0463,0.0451,0.0447,0.0433,0.0416,0.0419,0.0387,0.0369,0.0366,0.0321,0.0294,0.0246,0.0208,0.0173,0.0151,0.0156,0.01,0.0113,0.0113,0.014,0.009,0.0087,0.0084,0.012,0.0121,0.0121,0,0,0.0483,0.0462,0.0467,0.0458,0.0432,0.0422,0.0413,0.0382,0.0362,0.0329,0.0289,0.0236,0.0186,0.0161,0.0141,0.011,0.0089,0.0082,0.0111,0.0062,0.006,0.0058,0.0041,0.0037,0.0084,0.0084,0.0084,0,0.0485,0.0493,0.0468,0.0472,0.047,0.0424,0.0435,0.0414,0.0371,0.0362,0.0322,0.0238,0.0189,0.0163,0.0139,0.011,0.0085,0.0127,0.0062,0.006,0.0058,0.0041,0.0036,0.0085,0.0085,0.0085,0.0085,0,0.0515,0.0515,0.0517,0.0511,0.051,0.0505,0.048,0.0464,0.0421,0.0398,0.0346,0.0271,0.0227,0.0186,0.0149,0.0106,0.0095,0.0065,0.0077,0.0056,0.0039,0.0034,0.0086,0.0086,0.0085,0.0085,0,0,0.0521,0.0536,0.0531,0.0544,0.0526,0.0531,0.053,0.0526,0.0535,0.0455,0.0456,0.0352,0.0297,0.027,0.0203,0.0151,0.009,0.0097,0.0094,0.0098,-0.0004,-0.0029,-0.0037,0.0037,0.0036,0.0035,-0.0008,0,0.0543,0.057,0.0574,0.0601,0.0612,0.0595,0.0613,0.06,0.0571,0.0559,0.0467,0.0424,0.0334,0.0291,0.0226,0.0132,0.0077,0.0106,0.0002,0.0001,-0.0006,-0.0043,-0.0062,-0.0104,-0.0012,-0.0013,-0.0014,0,0.056,0.0579,0.0605,0.0655,0.0661,0.0668,0.0695,0.0707,0.0688,0.0664,0.0607,0.0534,0.0447,0.0358,0.0209,0.0226,0.0112,0.0035,0.0031,0.0005,-0.0034,-0.0072,-0.0116,-0.0022,-0.0021,-0.002,-0.002,0,0.055,0.0604,0.0628,0.0634,0.0676,0.0687,0.071,0.0719,0.0744,0.0714,0.0712,0.0615,0.0549,0.0406,0.0228,0.0206,0.0074,0.0027,-0.0091,-0.0092,-0.0125,-0.0128,-0.0085,-0.0085,-0.0085,-0.0085,-0.0085,0,0.0561,0.0578,0.0623,0.0612,0.0673,0.0699,0.0742,0.0762,0.0791,0.0824,0.0744,0.074,0.0546,0.0443,0.0276,0.0092,0.0105,-0.0077,-0.0111,-0.012,-0.0123,-0.0063,-0.006,-0.0087,-0.0086,-0.0086,-0.0086,0,0.0535,0.0555,0.0586,0.063,0.0648,0.0684,0.0755,0.0805,0.0826,0.0865,0.0849,0.0815,0.0691,0.0516,0.0306,0.0156,-0.0015,-0.0091,-0.007,-0.0101,-0.0156,-0.0151,-0.0215,-0.0217,-0.0218,-0.0219,-0.022,0,0.0535,0.0538,0.057,0.0605,0.0616,0.0675,0.0725,0.0789,0.0854,0.0911,0.0942,0.0855,0.0812,0.0543,0.0253,-0.0007,-0.0023,-0.0183,-0.024,-0.0145,-0.0172,-0.0166,-0.016,-0.0274,-0.0275,-0.0276,-0.0277,0,0.0529,0.0514,0.0541,0.0595,0.0643,0.0727,0.0801,0.0868,0.0956,0.1008,0.1084,0.1059,0.0794,0.0526,0.0173,-0.0001,-0.0139,-0.0212,-0.013,-0.0237,-0.0204,-0.0229,-0.0221,-0.0285,-0.0285,-0.0284,-0.0283,-0.0283,0.0524,0.0553,0.0561,0.0628,0.0694,0.0784,0.0856,0.0969,0.1086,0.1176,0.1167,0.109,0.0748,0.026,0.0026,-0.0215,-0.0224,-0.0331,-0.0327,-0.0322,-0.032,-0.0292,-0.0386,-0.0386,-0.0386,-0.0386,-0.0385,0,0.0542,0.0544,0.0607,0.069,0.0775,0.0778,0.0922,0.1036,0.1184,0.1175,0.1213,0.0851,0.0556,0.0244,-0.0151,-0.0384,-0.0385,-0.0413,-0.0384,-0.0376,-0.0369,-0.0367,-0.0448,-0.0448,-0.0448,-0.0448,0,0,0.056,0.0582,0.0616,0.0733,0.0793,0.0897,0.0975,0.1152,0.1195,0.1206,0.1076,0.0894,0.0499,0.0176,-0.0109,-0.026,-0.0252,-0.0281,-0.0221,-0.0148,-0.0136,-0.0327,-0.0317,0,0,0,0,0]}],[{"header":{"parameterUnit":"m.s-1","parameterCategory":2,"la1":30.2991,"la2":30.254,"lo1":-89.0895,"lo2":-89.0444,"dy":0.0017,"dx":0.0017,"nx":28,"ny":28,"refTime":"2024-07-28T21:00:00:Z","depth":"4","parameterNumber":2,"parameterNumberName":"U-component_of_CURRENTS"},"data":[0,0,0,0,0,0,0,0,0,0,0,0,0,0,0,0,0,0,0,0,0,0,0,0,0,0,0,0,0,0,0,0,0,0,0,0,0,0,0,0,0,0,0,0,0,0,0,0,0,0,0,0,0,0,0,0,0,0,0.0282,0.0282,0,0.03,0.03,0.03,0.0318,0.0319,0.0319,0.0319,0.0331,0.0331,0.0331,0,0,0,0,0,0,0,0,0,0,0,0,0,0.0239,0.0239,0.0282,0.0282,0.0282,0.03,0.03,0.03,0.0318,0.0319,0.0319,0.032,0.0331,0.0331,0.0331,0,0,0,0,0,0,0,0,0,0,0,0,0,0.0255,0.0239,0.0282,0.0295,0.0297,0.03,0.03,0.03,0.0318,0.0319,0.0319,0.032,0.0331,0.0331,0.0331,0.0317,0,0,0.033,0.033,0,0,0,0,0,0,0,0,0.0254,0.0257,0.0293,0.0294,0.0296,0.0309,0.0289,0.0306,0.0318,0.0308,0.0319,0.032,0.0324,0.0324,0.0323,0.0318,0.0318,0.033,0.033,0.033,0.033,0,0,0,0,0,0,0,0.0253,0.0256,0.0287,0.0293,0.0295,0.0292,0.0295,0.0292,0.031,0.0309,0.031,0.0315,0.0324,0.0324,0.0324,0.0318,0.033,0.033,0.033,0.033,0.0347,0.0348,0,0,0,0,0,0,0.0256,0.0255,0.0286,0.0288,0.0278,0.0293,0.0296,0.0303,0.0311,0.0313,0.0315,0.0316,0.0323,0.0324,0.0324,0.0346,0.033,0.033,0.033,0.0347,0.0347,0.0348,0,0,0,0,0,0,0.0255,0.0258,0.0286,0.0273,0.0277,0.0293,0.03,0.0303,0.0322,0.0316,0.0318,0.0334,0.0324,0.0325,0.0334,0.0345,0.033,0.033,0.0346,0.0347,0.0348,0.0365,0,0,0,0,0,0,0.0253,0.0258,0.0268,0.0273,0.0278,0.0302,0.03,0.0303,0.0324,0.0326,0.0332,0.0333,0.0325,0.0334,0.0334,0.0345,0.033,0.0345,0.0346,0.0347,0.0364,0.0366,0.0369,0,0,0,0,0,0.0252,0.0261,0.0269,0.0273,0.029,0.0303,0.0305,0.0316,0.0324,0.0336,0.0337,0.0334,0.0341,0.0334,0.0334,0.0345,0.0345,0.0346,0.0347,0.0363,0.0366,0.0369,0,0,0,0,0,0,0.0244,0.0264,0.0273,0.0287,0.0302,0.0307,0.0321,0.0328,0.0337,0.0345,0.0337,0.0338,0.0348,0.0346,0.034,0.0354,0.0344,0.0345,0.0356,0.0359,0.0361,0.0367,0.0329,0,0,0,0,0,0.0249,0.0265,0.0279,0.0294,0.0305,0.0317,0.0327,0.0336,0.0343,0.0349,0.035,0.0352,0.0349,0.0355,0.0351,0.036,0.0359,0.0368,0.0371,0.0373,0.0378,0.0371,0.0373,0.0352,0.0352,0.0352,0,0,0.0248,0.0264,0.0271,0.0294,0.0309,0.0321,0.0325,0.0348,0.0355,0.0348,0.036,0.0359,0.0352,0.0358,0.0364,0.0361,0.0382,0.0374,0.0376,0.038,0.0372,0.0374,0.0376,0.0353,0.0352,0.0352,0,0,0.0255,0.0274,0.0291,0.0307,0.0336,0.0339,0.0351,0.0366,0.0374,0.0385,0.0378,0.0381,0.0386,0.0377,0.0373,0.0388,0.0391,0.0398,0.0418,0.0411,0.0413,0.0414,0.0431,0.0434,0.0403,0.0403,0.0403,0,0.0257,0.0277,0.0297,0.0319,0.033,0.0349,0.0363,0.0371,0.0385,0.0388,0.0395,0.0394,0.039,0.0386,0.0396,0.0392,0.0402,0.0406,0.0414,0.0415,0.0416,0.0433,0.0435,0.0404,0.0404,0.0404,0.0404,0,0.0272,0.0295,0.0309,0.0338,0.035,0.0369,0.0382,0.0395,0.0406,0.041,0.0419,0.0412,0.0415,0.0413,0.0413,0.042,0.0432,0.0413,0.0405,0.0419,0.0436,0.0439,0.0406,0.0405,0.0405,0.0405,0,0,0.0263,0.0309,0.0317,0.0334,0.0363,0.0374,0.0387,0.0398,0.041,0.0422,0.043,0.0429,0.0439,0.0437,0.0434,0.0433,0.0454,0.044,0.0439,0.0455,0.0467,0.0486,0.049,0.0442,0.0442,0.0442,0.0482,0,0.0272,0.0309,0.0326,0.0353,0.0371,0.0387,0.0395,0.0409,0.0421,0.0434,0.0432,0.0446,0.0444,0.0459,0.0455,0.0451,0.0459,0.0446,0.0453,0.0454,0.0466,0.0492,0.0442,0.0484,0.0484,0.0485,0.0485,0,0.0281,0.0305,0.0335,0.0364,0.0374,0.0391,0.041,0.0422,0.0439,0.0452,0.0465,0.0473,0.0484,0.0478,0.0482,0.0481,0.0485,0.0478,0.0479,0.0491,0.0476,0.0463,0.0489,0.0489,0.0488,0.0488,0.0488,0,0.0266,0.0309,0.0331,0.0344,0.0379,0.0396,0.0414,0.0434,0.0451,0.0478,0.0502,0.0502,0.0527,0.0514,0.0522,0.051,0.0526,0.0497,0.0515,0.0517,0.0479,0.0477,0.0499,0.0499,0.0499,0.0499,0.0499,0,0.0263,0.0284,0.0335,0.035,0.0378,0.0403,0.0435,0.0451,0.0484,0.0503,0.0526,0.0538,0.0542,0.0552,0.0536,0.0549,0.054,0.0532,0.0528,0.0489,0.0487,0.0482,0.0479,0.0501,0.05,0.05,0.05,0,0.0246,0.0278,0.0309,0.0356,0.0376,0.04,0.046,0.0476,0.052,0.0547,0.0565,0.0589,0.0607,0.0611,0.06,0.0586,0.0574,0.0579,0.0567,0.056,0.0568,0.0566,0.0601,0.0602,0.0602,0.0603,0.0604,0,0.0239,0.0256,0.0315,0.0337,0.0368,0.0414,0.044,0.0489,0.0506,0.0561,0.0564,0.0616,0.0626,0.0636,0.0626,0.0625,0.0613,0.0621,0.057,0.0585,0.0578,0.0575,0.0572,0.0605,0.0605,0.0605,0.0606,0,0.0223,0.0251,0.0275,0.0325,0.0364,0.0399,0.0443,0.0463,0.0508,0.0553,0.0575,0.06,0.063,0.0628,0.066,0.0636,0.0617,0.0629,0.0626,0.0578,0.0591,0.0582,0.0578,0.0608,0.0608,0.0608,0.0608,0,0.0212,0.0225,0.0265,0.0302,0.0352,0.038,0.0404,0.0439,0.0472,0.0538,0.0534,0.0579,0.0612,0.0634,0.0633,0.0652,0.0634,0.0613,0.061,0.0607,0.0592,0.0607,0.0638,0,0,0,0,0,0.0199,0.0211,0.0239,0.028,0.0328,0.0354,0.0401,0.0421,0.0471,0.0485,0.0519,0.0541,0.0583,0.0593,0.0613,0.0628,0.0628,0.065,0.0599,0.0624,0.0621,0.0602,0,0,0,0,0,0,0.0189,0.0216,0.0226,0.0259,0.0283,0.0325,0.0356,0.0381,0.0395,0.0449,0.0468,0.0524,0.0558,0.0566,0.0603,0.0613,0.0578,0.0684,0.0684,0.0626,0.0623,0.062,0.06,0,0,0,0,0]},{"header":{"parameterUnit":"m.s-1","parameterCategory":2,"la1":30.2991,"la2":30.254,"lo1":-89.0895,"lo2":-89.0444,"dy":0.0017,"dx":0.0017,"nx":28,"ny":28,"refTime":"2024-07-28T21:00:00:Z","depth":"4","parameterNumber":3,"parameterNumberName":"V-component_of_CURRENTS"},"data":[0,0,0,0,0,0,0,0,0,0,0,0,0,0,0,0,0,0,0,0,0,0,0,0,0,0,0,0,0,0,0,0,0,0,0,0,0,0,0,0,0,0,0,0,0,0,0,0,0,0,0,0,0,0,0,0,0,0,0.0158,0.0157,0,0.0111,0.0111,0.011,0.0083,0.0083,0.0083,0.0083,-0.0007,-0.001,-0.0012,0,0,0,0,0,0,0,0,0,0,0,0,0,0.0184,0.0183,0.0158,0.0157,0.0157,0.0112,0.0111,0.011,0.0083,0.0083,0.0083,0.0083,-0.0007,-0.001,-0.0013,0,0,0,0,0,0,0,0,0,0,0,0,0,0.0156,0.0183,0.0158,0.014,0.0138,0.0112,0.0111,0.011,0.0083,0.0083,0.0083,0.0083,-0.0006,-0.0009,-0.0013,-0.0039,0,0,-0.0024,-0.0026,0,0,0,0,0,0,0,0,0.0158,0.0155,0.0143,0.0141,0.0139,0.0105,0.0087,0.0059,0.0083,0.0101,0.0083,0.0083,0.0027,0.0021,0.0009,-0.0043,-0.0047,-0.0025,-0.0027,-0.0029,-0.003,0,0,0,0,0,0,0,0.016,0.0157,0.0137,0.0142,0.014,0.0121,0.0117,0.0081,0.0061,0.0099,0.0098,0.0096,0.0026,0.0013,0.0007,-0.0048,-0.0025,-0.0028,-0.003,-0.0032,-0.0166,-0.0168,0,0,0,0,0,0,0.0172,0.0159,0.0138,0.0136,0.0151,0.0121,0.0116,0.0114,0.0063,0.0056,0.0096,0.0095,0.0019,0.0011,0.0004,-0.0064,-0.0029,-0.0032,-0.0034,-0.0165,-0.0167,-0.0168,0,0,0,0,0,0,0.0173,0.0171,0.014,0.0148,0.0143,0.012,0.0117,0.0113,0.0098,0.0061,0.0053,0.0086,0.0019,0.0009,-0.0043,-0.0066,-0.0034,-0.0037,-0.0164,-0.0166,-0.0167,-0.0177,0,0,0,0,0,0,0.0174,0.0171,0.0172,0.0149,0.0143,0.0118,0.0117,0.0112,0.0098,0.0096,0.005,0.0042,0.0019,-0.0038,-0.0047,-0.0071,-0.004,-0.0162,-0.0164,-0.0167,-0.0175,-0.0179,-0.0183,0,0,0,0,0,0.0175,0.0172,0.0173,0.017,0.0146,0.0118,0.0112,0.0095,0.0097,0.0084,0.0048,0.0043,-0.006,-0.0042,-0.0053,-0.0078,-0.0161,-0.0164,-0.0167,-0.0173,-0.0178,-0.0183,0,0,0,0,0,0,0.0181,0.0169,0.0169,0.0162,0.0141,0.0114,0.0104,0.0095,0.0058,0.0054,0.0024,0.0012,-0.0043,-0.006,-0.0039,-0.0125,-0.0111,-0.0116,-0.0112,-0.0117,-0.0121,-0.0114,-0.0043,0,0,0,0,0,0.0186,0.0181,0.0163,0.0157,0.0149,0.0127,0.0116,0.0101,0.007,0.0054,0.0021,-0.0018,-0.0064,-0.0088,-0.0129,-0.0176,-0.0182,-0.0199,-0.0202,-0.0205,-0.0208,-0.0237,-0.0243,-0.0178,-0.0178,-0.0178,0,0,0.0187,0.018,0.0177,0.0158,0.0143,0.0116,0.0119,0.0097,0.0067,0.0049,-0.0004,-0.0035,-0.008,-0.0136,-0.0161,-0.0153,-0.0228,-0.0209,-0.0211,-0.0213,-0.0241,-0.0247,-0.0252,-0.018,-0.018,-0.0179,0,0,0.0178,0.018,0.0168,0.0149,0.0127,0.0109,0.0104,0.0071,0.0051,0.0001,-0.0023,-0.0067,-0.0131,-0.017,-0.0197,-0.0247,-0.0248,-0.0259,-0.0273,-0.0301,-0.0306,-0.0311,-0.0323,-0.0328,-0.0259,-0.0259,-0.0259,0,0.0178,0.0163,0.0159,0.0136,0.012,0.0106,0.0079,0.0051,0.0003,-0.0018,-0.0018,-0.0116,-0.015,-0.022,-0.0239,-0.0255,-0.0263,-0.025,-0.0304,-0.0309,-0.0314,-0.0325,-0.0331,-0.026,-0.026,-0.026,-0.026,0,0.0153,0.0139,0.0129,0.0098,0.0077,0.0053,0.002,-0.0007,-0.0026,-0.0054,-0.0118,-0.0163,-0.0217,-0.0238,-0.0257,-0.0313,-0.0305,-0.0304,-0.0287,-0.032,-0.033,-0.0336,-0.0261,-0.0261,-0.0261,-0.0261,0,0,0.0155,0.0119,0.0115,0.01,0.0057,0.0039,-0.0009,-0.0054,-0.0078,-0.0127,-0.0165,-0.0245,-0.0253,-0.0285,-0.0311,-0.0337,-0.0376,-0.0334,-0.0335,-0.0335,-0.0426,-0.0387,-0.0389,-0.0381,-0.0382,-0.0383,-0.0418,0,0.0135,0.01,0.008,0.0039,0.0017,-0.001,-0.0049,-0.0091,-0.0124,-0.0165,-0.0212,-0.0261,-0.0277,-0.0297,-0.0331,-0.0367,-0.0393,-0.0366,-0.0403,-0.0404,-0.0357,-0.0396,-0.0388,-0.0422,-0.0424,-0.0425,-0.0425,0,0.0112,0.0095,0.0057,0.0021,0.0009,-0.0019,-0.0065,-0.0104,-0.0164,-0.0188,-0.024,-0.0271,-0.0335,-0.033,-0.0407,-0.0388,-0.0411,-0.043,-0.0432,-0.0396,-0.0376,-0.0385,-0.0436,-0.0435,-0.0434,-0.0434,-0.0433,0,0.0122,0.0077,0.0054,0.0038,-0.0009,-0.0029,-0.0055,-0.011,-0.0137,-0.02,-0.0217,-0.0295,-0.0325,-0.0376,-0.0417,-0.0417,-0.0479,-0.0484,-0.0472,-0.0469,-0.0486,-0.0481,-0.0535,-0.0535,-0.0535,-0.0535,-0.0535,0,0.0107,0.0088,0.0062,0.0047,0.0024,-0.0014,-0.0045,-0.0082,-0.0131,-0.0155,-0.0222,-0.0246,-0.0336,-0.0379,-0.042,-0.0458,-0.0484,-0.0482,-0.0481,-0.049,-0.0485,-0.049,-0.0484,-0.0536,-0.0536,-0.0535,-0.0535,0,0.0111,0.0092,0.0068,0.0034,0.0027,0.001,-0.0027,-0.005,-0.0095,-0.0126,-0.0144,-0.022,-0.0275,-0.0347,-0.0424,-0.0451,-0.0496,-0.0498,-0.0492,-0.0488,-0.0468,-0.0463,-0.0506,-0.0505,-0.0505,-0.0504,-0.0503,0,0.0105,0.0094,0.0073,0.0069,0.0054,0.0032,0.0017,-0.0028,-0.0046,-0.0097,-0.0106,-0.0171,-0.0219,-0.0295,-0.0376,-0.0458,-0.0463,-0.049,-0.05,-0.0474,-0.0468,-0.0464,-0.046,-0.0502,-0.0502,-0.0502,-0.0501,0,0.0095,0.0093,0.0079,0.008,0.0072,0.0057,0.0039,0.0033,-0.0011,-0.0042,-0.0065,-0.0123,-0.0181,-0.0267,-0.0329,-0.0386,-0.0481,-0.0482,-0.0484,-0.0494,-0.0469,-0.0463,-0.046,-0.0499,-0.0499,-0.0499,-0.0499,0,0.0091,0.0087,0.0082,0.0082,0.0083,0.0079,0.0065,0.0051,0.003,-0.0014,-0.001,-0.0085,-0.0137,-0.0227,-0.0279,-0.0339,-0.0362,-0.0384,-0.0392,-0.0397,-0.0354,-0.0306,-0.0291,0,0,0,0,0,0.0082,0.0081,0.0082,0.0078,0.0087,0.0087,0.0077,0.0062,0.0043,0.0039,0.0013,-0.0032,-0.0125,-0.0175,-0.0226,-0.0279,-0.0384,-0.0343,-0.0415,-0.0483,-0.0486,-0.0452,0,0,0,0,0,0,0.007,0.0074,0.0078,0.0084,0.0089,0.0088,0.0087,0.007,0.0066,0.0047,0.0001,-0.0032,-0.0125,-0.0085,-0.022,-0.0242,-0.0293,-0.0393,-0.0393,-0.0481,-0.0484,-0.0487,-0.0453,0,0,0,0,0]}]]